AirNav   TITAN Aviation Fuels
 
 1521 users online  

32FA Sunset Strip Airpark
Okeechobee, Florida, USA

GOING TO OKEECHOBEE?


FAA INFORMATION EFFECTIVE 16 JUNE 2022

Location

FAA Identifier: 32FA
Lat/Long: 27-14-03.1660N 080-54-13.2240W
27-14.052767N 080-54.220400W
27.2342128,-80.9036733
(estimated)
Elevation: 34 ft. / 10 m (estimated)
Variation: 03W (1985)
From city: 3 miles W of OKEECHOBEE, FL
Time zone: UTC -4 (UTC -5 during Standard Time)
Zip code: 34974

Airport Operations

Airport use: Private use. Permission required prior to landing
Activation date: 07/1977
Control tower: no
ARTCC: MIAMI CENTER
FSS: SAINT PETERSBURG FLIGHT SERVICE STATION
Attendance: UNATNDD
Wind indicator: yes
Segmented circle: no

Airport Communications

WX AWOS-3 at OBE (3 nm NE): 118.675 (863-467-1148)

Airport Services

Runway Information

Runway 8/26

Dimensions: 5000 x 100 ft. / 1524 x 30 m
Surface: turf
RUNWAY 8  RUNWAY 26
Traffic pattern: rightleft

Airport Ownership and Management from official FAA records

Ownership: Privately-owned
Owner: SUNSET STRIP AIRPARK INC
PO BOX 92
OKEECHOBEE, FL 34972
Phone 863-467-5808
Manager: EDDIE MATCHETT
SUNSET STRIP AIRPARK INC, PO BOX 92
OKEECHOBEE, FL 34972
Phone 863-467-5808

Airport Operational Statistics

Aircraft based on the field: 5
Single engine airplanes: 3
Multi engine airplanes: 2
    

Additional Remarks

FOR CD CTC MIAMI ARTCC AT 305-716-1731.

Instrument Procedures

There are no published instrument procedures at 32FA.

Some nearby airports with instrument procedures:

KOBE - Okeechobee County Airport (3 nm NE)
KSEF - Sebring Regional Airport (27 nm NW)
KPHK - Palm Beach County Glades Airport (29 nm SE)
2IS - Airglades Airport (31 nm S)
KFPR - Treasure Coast International Airport (32 nm NE)
 
Loc | Ops | Rwys | IFR | FBO | Links
Com | Nav | Svcs | Stats | Notes


 
Area around 32FA (Sunset Strip Airpark)
 
Road maps at: MapQuest Bing Google
 
Aerial photo
WARNING: Photo may not be current or correct
Aerial photo of 32FA (Sunset Strip Airpark)
Do you have a better or more recent aerial photo of Sunset Strip Airpark that you would like to share? If so, please send us your photo.

 
Sectional chart

 
Airport distance calculator
Flying to Sunset Strip Airpark? Find the distance to fly.

From to 32FA

Sunrise and sunset
Times for 29-Jun-2022
 Local
(UTC-4)
 Zulu
(UTC)
Morning civil twilight06:0610:06
Sunrise06:3310:33
Sunset20:2100:21
Evening civil twilight20:4800:48

Current date and time
Zulu (UTC)  29-Jun-2022 17:08:28
Local (UTC-4)  29-Jun-2022 13:08:28
 
METAR
KOBE 
3nm NE 
291655Z AUTO 10004KT 9SM VCTS RA FEW030 27/27 A3015 RMK AO2 LTG DSNT NE-SE P0008
TAF
KFPR 
32nm NE 
291128Z 2912/3012 10005KT P6SM VCSH FEW020 SCT035 BKN250 TEMPO 2912/2913 4SM SHRA BKN035 FM291600 12008KT P6SM VCTS SCT030CB BKN060 TEMPO 2916/2918 3SM TSRA BKN025CB FM292000 11008KT P6SM SCT025 BKN250 FM300100 14003KT P6SM FEW022 SCT250
KVRB 
36nm NE 
291128Z 2912/3012 10005KT P6SM VCSH FEW010 FEW022 BKN250 FM291600 10007KT P6SM VCTS SCT030CB BKN060 TEMPO 2916/2918 3SM TSRA BKN025CB FM292000 11008KT P6SM SCT025 BKN250 FM300100 14003KT P6SM FEW022 SCT250
KSUA 
37nm E 
291128Z 2912/3012 13007KT P6SM VCSH FEW022 SCT035 OVC250 FM291500 11010KT P6SM VCTS SCT025CB BKN050 TEMPO 2915/2917 3SM TSRA BKN025CB FM292000 11009KT P6SM SCT025 BKN250 FM300100 14004KT P6SM FEW022 SCT250 AMD NOT SKED
NOTAMs
Click for the latest NOTAMs
NOTAMs are issued by the DoD/FAA and will open in a separate window not controlled by AirNav.

 

 
 

Would you like to see your business listed on this page?

 If your business provides an interesting product or service to pilots, flight crews, aircraft, or users of the Sunset Strip Airpark, you should consider listing it here.  To start the listing process, click on the button below
 
Add a business
 

Other Pages about Sunset Strip Airpark

Update a link
 
Copyright © AirNav, LLC. All rights reserved. Privacy Policy  Contact